ONEWEB-0102 (47258 NORAD) Tracking and Keplerian Element Data

This shows tracking and keplerian element data for the satellite.

Feedback or suggestion? Click here.




ElementValue
Catalog47258
NameONEWEB-0102
Epoch Orbit516
Epoch Day21.16668981
Epoch Year2021
RAAN27.8527
Inclination87.4503
Eccentricity0.000992
Argument of Perigee148.1475
Mean Anonmoly238.7091
Mean Motion15.05118269
Decay Rate-0.01468272
L11 47258U 20100A 21021.16668981 -.01468272 00000-0 -11294+0 0 9998
L22 47258 87.4503 27.8527 0009920 148.1475 238.7091 15.05118269 5166

Live tracking and technical data element details for ONEWEB-0102 (NORAD 47258). ONEWEB-0102 can be tracked NOW for your location showing map with azimuth and elevation plus other details from your city location.

Track the satellite on the map from your city or location and see movement details for azimuth, elevation, latitude, longitude, range, height, and movement on the map or in text.







IsCatalogInMostPopularTable: catalog: 47258, numindb: 13
Update: records affected: 1



GetName: 47258 ONEWEB-0102

Hit Count: updated at: Fri, 22 Jan 2021 16:18:56 GMT